This is the latest recevied weather packets stored in our database for station/object OH2NJR. If no packets are shown the sender has not sent any weather packets the latest 10 day(s).
| Time | Temp. | Humidity | Pressure | Rain* | Wind** | Luminosity | Snow |
|---|---|---|---|---|---|---|---|
| 1777740082 | 13.33° C | 52% | 1008.9 hPa | 0 mm | - | - | - |
| 1777738928 | 13.33° C | 53% | 1009 hPa | 0 mm | - | - | - |
| 1777737904 | 13.33° C | 53% | 1009.1 hPa | 0 mm | - | - | - |
| 1777736948 | 13.89° C | 52% | 1009.1 hPa | 0 mm | - | - | - |
| 1777735908 | 13.33° C | 55% | 1009.1 hPa | 0 mm | - | - | - |
| 1777734713 | 13.33° C | 56% | 1009.1 hPa | 0 mm | - | - | - |
| 1777733628 | 12.78° C | 55% | 1009.2 hPa | 0 mm | - | - | - |
| 1777732573 | 12.78° C | 56% | 1009.1 hPa | 0 mm | - | - | - |
| 1777731388 | 12.78° C | 59% | 1009.3 hPa | 0 mm | - | - | - |
| 1777730323 | 12.22° C | 59% | 1009.3 hPa | 0 mm | - | - | - |
| 1777729298 | 11.67° C | 60% | 1009.3 hPa | 0 mm | - | - | - |
| 1777728113 | 11.67° C | 60% | 1009.3 hPa | 0 mm | - | - | - |
| 1777727038 | 12.78° C | 58% | 1009.4 hPa | 0 mm | - | - | - |
| 1777725858 | 10° C | 67% | 1010 hPa | 0 mm | - | - | - |
| 1777724681 | 9.44° C | 68% | - | 0 mm | - | - | - |
| 1777724678 | 9.44° C | 68% | 1010 hPa | 0 mm | - | - | - |
| 1777723619 | 9.44° C | 69% | 1010.1 hPa | 0 mm | - | - | - |
| 1777722658 | 9.44° C | 68% | 1010.2 hPa | 0 mm | - | - | - |
| 1777721689 | 10° C | 67% | 1010.2 hPa | 0 mm | - | - | - |
| 1777720608 | 9.44° C | 69% | 1010.4 hPa | 0 mm | - | - | - |
| 1777719767 | 10° C | 68% | 1010.3 hPa | 0 mm | - | - | - |
| 1777719618 | 10° C | 68% | 1010.3 hPa | 0 mm | - | - | - |
| 1777718483 | 10° C | 68% | 1010.5 hPa | 0 mm | - | - | - |
| 1777717468 | 10.56° C | 66% | 1010.6 hPa | 0 mm | - | - | - |
| 1777716448 | 9.44° C | 71% | 1010.9 hPa | 0 mm | - | - | - |
* Rain latest hour (hover to see other rain measurements)
** Current wind speed in m/s (hover to see current wind gust speed)